Location: Molveno
(46.1500°N, 10.9667°E)
Time: 01:37:45
(UTC+00:00)

ATLAS CENTAUR R/B - Pass Details

Date: 05 July 2020
Orbit: 475 x 672 km, 64.7° (Epoch: 13 July)

Event Time Altitude Azimuth Distance (km) Brightness Sun altitude
Rises 21:52:24 0° 315° (NW) 2,558 5.9 -18.3°
Reaches altitude 10° 21:54:43 10° 304° (NW) 1,659 4.6 -18.5°
Maximum altitude 21:57:57 30° 242° (WSW) 877 2.2 -18.7°
Enters shadow 21:58:26 29° 226° (SW) 900 2.2 -18.7°
